| time (UTC) | temp C | wind direction | speed KPH | gust KPH | rain 1hr cm | rain 24hr cm | rain mn cm | humidity % | barometer mb |
| 20260507130018 | 10 | 319 | 0.0 | 0.0 | 0.00 | 0.89 | 0.43 | 71 | 1013.5 |
| 20260507124513 | 10 | 320 | 0.0 | 0.0 | 0.00 | 0.91 | 0.43 | 75 | 1013.4 |
| 20260507123012 | 10 | 320 | 0.0 | 0.0 | 0.00 | 0.97 | 0.43 | 78 | 1013.4 |
| 20260507121508 | 9 | 320 | 0.0 | 0.0 | 0.00 | 1.04 | 0.43 | 83 | 1013.3 |
| 20260507120005 | 9 | 320 | 0.0 | 0.0 | 0.00 | 1.04 | 0.43 | 86 | 1013.2 |
| 20260507114524 | 9 | 320 | 0.0 | 0.0 | 0.00 | 1.04 | 0.43 | 84 | 1013.1 |
| 20260507113023 | 9 | 320 | 0.0 | 0.0 | 0.00 | 1.04 | 0.43 | 82 | 1013.2 |
| 20260507111518 | 9 | 320 | 0.0 | 0.0 | 0.00 | 1.04 | 0.43 | 79 | 1013.1 |
| 20260507110018 | 9 | 320 | 0.0 | 0.0 | 0.00 | 1.04 | 0.43 | 83 | 1012.9 |
| 20260507104511 | 10 | 320 | 0.0 | 0.0 | 0.00 | 1.04 | 0.43 | 90 | 1012.8 |
| 20260507103008 | 10 | 320 | 0.0 | 0.0 | 0.00 | 1.04 | 0.43 | 90 | 1012.6 |
| 20260507101533 | 10 | 320 | 0.0 | 0.0 | 0.00 | 1.04 | 0.43 | 90 | 1012.5 |
| 20260507100023 | 10 | 320 | 0.0 | 0.0 | 0.00 | 1.04 | 0.43 | 89 | 1012.2 |
| 20260507094521 | 10 | 320 | 0.0 | 0.0 | 0.00 | 1.04 | 0.43 | 90 | 1012.2 |
| 20260507093016 | 10 | 320 | 0.0 | 0.0 | 0.00 | 1.04 | 0.43 | 91 | 1012.2 |
| 20260507091518 | 10 | 320 | 0.0 | 0.0 | 0.00 | 1.04 | 0.43 | 91 | 1012.3 |
| 20260507090026 | 10 | 320 | 0.0 | 0.0 | 0.00 | 1.04 | 0.43 | 90 | 1012.2 |
| 20260507084527 | 10 | 320 | 0.0 | 0.0 | 0.00 | 1.04 | 0.43 | 91 | 1012.0 |
| 20260507083022 | 10 | 320 | 0.0 | 0.0 | 0.00 | 1.04 | 0.43 | 90 | 1011.8 |
| 20260507081523 | 10 | 320 | 0.0 | 0.0 | 0.03 | 1.04 | 0.43 | 90 | 1011.4 |
| 20260507080018 | 10 | 320 | 0.0 | 0.0 | 0.03 | 1.04 | 0.43 | 91 | 1011.4 |
| 20260507074515 | 10 | 313 | 0.0 | 0.0 | 0.03 | 1.04 | 0.43 | 91 | 1011.3 |
| 20260507073028 | 10 | 313 | 0.0 | 0.0 | 0.08 | 1.04 | 0.43 | 91 | 1011.2 |
| 20260507071526 | 10 | 313 | 0.0 | 0.0 | 0.13 | 1.02 | 0.41 | 91 | 1011.2 |
| 20260507070039 | 11 | 311 | 0.0 | 0.0 | 0.13 | 1.02 | 0.41 | 91 | 1011.4 |
| 20260507064505 | 11 | 311 | 0.0 | 0.0 | 0.13 | 1.02 | 0.41 | 90 | 1011.7 |
| 20260507063004 | 11 | 311 | 0.0 | 0.0 | 0.08 | 0.97 | 0.36 | 90 | 1011.4 |
| 20260507061509 | 11 | 311 | 0.0 | 0.0 | 0.00 | 0.89 | 0.28 | 90 | 1011.6 |
| 20260507060013 | 11 | 311 | 0.0 | 0.0 | 0.00 | 0.89 | 0.28 | 91 | 1011.8 |
| 20260507054510 | 11 | 311 | 0.0 | 0.0 | 0.00 | 0.89 | 0.28 | 90 | 1011.5 |
| 20260507053009 | 12 | 311 | 0.0 | 0.0 | 0.18 | 0.89 | 0.28 | 91 | 1011.5 |
| 20260507051503 | 12 | 311 | 0.0 | 0.0 | 0.23 | 0.89 | 0.28 | 91 | 1011.5 |
| 20260507050020 | 12 | 311 | 0.0 | 0.0 | 0.28 | 0.89 | 0.28 | 91 | 1011.4 |
| 20260507044511 | 12 | 311 | 0.0 | 0.0 | 0.30 | 0.89 | 0.28 | 91 | 1011.7 |
| 20260507043012 | 12 | 311 | 0.0 | 0.0 | 0.18 | 0.71 | 0.10 | 91 | 1011.9 |
| 20260507041512 | 12 | 314 | 0.0 | 0.0 | 0.13 | 0.66 | 0.05 | 89 | 1011.2 |
| 20260507040011 | 13 | 315 | 0.0 | 3.2 | 0.08 | 0.61 | 0.00 | 88 | 1011.5 |
| 20260507034507 | 13 | 316 | 0.0 | 1.6 | 0.05 | 0.58 | 0.58 | 86 | 1011.1 |
| 20260507033013 | 14 | 307 | 0.0 | 0.0 | 0.00 | 0.53 | 0.53 | 81 | 1011.3 |
| 20260507031516 | 14 | 314 | 0.0 | 1.6 | 0.00 | 0.53 | 0.53 | 80 | 1010.9 |
| 20260507030015 | 15 | 313 | 1.6 | 3.2 | 0.00 | 0.53 | 0.53 | 80 | 1010.8 |
| 20260507024521 | 15 | 315 | 1.6 | 6.4 | 0.00 | 0.53 | 0.53 | 79 | 1010.7 |
| 20260507023010 | 15 | 319 | 1.6 | 3.2 | 0.00 | 0.53 | 0.53 | 82 | 1010.7 |
| 20260507021518 | 15 | 309 | 3.2 | 4.8 | 0.00 | 0.53 | 0.53 | 83 | 1010.7 |
| 20260507020023 | 16 | 316 | 0.0 | 3.2 | 0.00 | 0.53 | 0.53 | 83 | 1010.6 |
| 20260507014521 | 16 | 318 | 3.2 | 6.4 | 0.00 | 0.53 | 0.53 | 83 | 1010.5 |
| 20260507013025 | 16 | 308 | 0.0 | 1.6 | 0.00 | 0.53 | 0.53 | 88 | 1010.3 |
| 20260507011529 | 16 | 307 | 3.2 | 4.8 | 0.00 | 0.53 | 0.53 | 87 | 1010.7 |
| 20260507010019 | 17 | 308 | 1.6 | 3.2 | 0.00 | 0.53 | 0.53 | 87 | 1010.6 |
| 20260507004523 | 17 | 326 | 1.6 | 4.8 | 0.00 | 0.53 | 0.53 | 87 | 1010.1 |
| 20260507003022 | 17 | 313 | 1.6 | 3.2 | 0.00 | 0.53 | 0.53 | 86 | 1010.3 |
| 20260507001506 | 17 | 326 | 4.8 | 6.4 | 0.00 | 0.53 | 0.53 | 86 | 1010.1 |
| 20260507000004 | 18 | 276 | 1.6 | 3.2 | 0.00 | 0.53 | 0.53 | 87 | 1009.8 |
| 20260506234520 | 18 | 257 | 0.0 | 0.0 | 0.00 | 0.53 | 0.53 | 85 | 1009.3 |
| 20260506233015 | 18 | 257 | 0.0 | 0.0 | 0.00 | 0.53 | 0.53 | 84 | 1009.0 |
| 20260506231511 | 18 | 257 | 0.0 | 0.0 | 0.00 | 0.53 | 0.53 | 83 | 1009.0 |
| 20260506230008 | 18 | 257 | 0.0 | 0.0 | 0.00 | 0.53 | 0.53 | 84 | 1008.9 |
| 20260506224505 | 18 | 257 | 0.0 | 0.0 | 0.00 | 0.53 | 0.53 | 83 | 1009.0 |
| 20260506223004 | 18 | 257 | 0.0 | 0.0 | 0.00 | 0.53 | 0.53 | 84 | 1008.8 |
| 20260506221522 | 18 | 257 | 0.0 | 0.0 | 0.00 | 0.53 | 0.53 | 84 | 1008.9 |
| 20260506220018 | 18 | 257 | 0.0 | 0.0 | 0.00 | 0.53 | 0.53 | 83 | 1009.1 |
| 20260506214516 | 18 | 257 | 0.0 | 0.0 | 0.00 | 0.53 | 0.53 | 82 | 1008.9 |
| 20260506213014 | 19 | 257 | 0.0 | 3.2 | 0.00 | 0.53 | 0.53 | 80 | 1008.7 |
| 20260506211512 | 18 | 233 | 0.0 | 1.6 | 0.00 | 0.53 | 0.53 | 80 | 1008.5 |
| 20260506210009 | 19 | 217 | 0.0 | 1.6 | 0.00 | 0.53 | 0.53 | 79 | 1008.5 |
| 20260506204522 | 19 | 210 | 1.6 | 1.6 | 0.00 | 0.53 | 0.53 | 79 | 1008.2 |
| 20260506203023 | 19 | 200 | 0.0 | 3.2 | 0.00 | 0.53 | 0.53 | 79 | 1008.2 |
| 20260506201519 | 19 | 288 | 0.0 | 0.0 | 0.00 | 0.53 | 0.53 | 80 | 1008.5 |
| 20260506200014 | 19 | 228 | 0.0 | 3.2 | 0.00 | 0.53 | 0.53 | 80 | 1008.4 |
| 20260506194509 | 19 | 269 | 0.0 | 4.8 | 0.00 | 0.53 | 0.53 | 80 | 1008.3 |
| 20260506193026 | 18 | 217 | 1.6 | 4.8 | 0.00 | 0.53 | 0.53 | 80 | 1008.5 |
| 20260506191527 | 18 | 243 | 0.0 | 3.2 | 0.00 | 0.53 | 0.53 | 82 | 1008.4 |
| 20260506190023 | 18 | 176 | 1.6 | 6.4 | 0.00 | 0.53 | 0.53 | 82 | 1008.6 |
| 20260506184521 | 17 | 206 | 0.0 | 3.2 | 0.00 | 0.53 | 0.53 | 84 | 1008.7 |
| 20260506183018 | 17 | 257 | 0.0 | 4.8 | 0.00 | 0.53 | 0.53 | 84 | 1008.8 |
| 20260506181510 | 17 | 205 | 1.6 | 4.8 | 0.00 | 0.53 | 0.53 | 84 | 1008.8 |
| 20260506180013 | 17 | 239 | 0.0 | 4.8 | 0.00 | 0.53 | 0.53 | 85 | 1009.0 |
| 20260506174508 | 16 | 229 | 1.6 | 4.8 | 0.00 | 0.53 | 0.53 | 86 | 1009.2 |
| 20260506173013 | 16 | 208 | 1.6 | 4.8 | 0.00 | 0.53 | 0.53 | 87 | 1009.1 |
| 20260506171503 | 16 | 139 | 1.6 | 6.4 | 0.00 | 0.53 | 0.53 | 88 | 1009.0 |
| 20260506170019 | 16 | 273 | 1.6 | 6.4 | 0.00 | 0.53 | 0.53 | 89 | 1009.2 |
| 20260506164516 | 15 | 239 | 0.0 | 6.4 | 0.00 | 0.53 | 0.53 | 90 | 1009.1 |
| 20260506163016 | 15 | 207 | 1.6 | 4.8 | 0.03 | 0.53 | 0.53 | 91 | 1009.3 |
| 20260506161508 | 15 | 212 | 0.0 | 4.8 | 0.03 | 0.53 | 0.53 | 91 | 1009.1 |
| 20260506160008 | 15 | 143 | 0.0 | 4.8 | 0.03 | 0.53 | 0.53 | 91 | 1009.3 |
| 20260506154503 | 15 | 188 | 1.6 | 4.8 | 0.08 | 0.53 | 0.53 | 92 | 1009.4 |
| 20260506153021 | 15 | 220 | 0.0 | 4.8 | 0.13 | 0.51 | 0.51 | 92 | 1009.3 |
| 20260506151516 | 14 | 162 | 1.6 | 4.8 | 0.15 | 0.51 | 0.51 | 92 | 1009.4 |
| 20260506150014 | 14 | 119 | 1.6 | 6.4 | 0.18 | 0.51 | 0.51 | 92 | 1009.4 |
| 20260506144512 | 14 | 208 | 1.6 | 4.8 | 0.18 | 0.46 | 0.46 | 92 | 1010.2 |
| 20260506143008 | 15 | 198 | 0.0 | 3.2 | 0.13 | 0.38 | 0.38 | 92 | 1010.1 |
| 20260506141529 | 15 | 222 | 0.0 | 6.4 | 0.15 | 0.36 | 0.36 | 92 | 1009.8 |
| 20260506140025 | 15 | 155 | 0.0 | 3.2 | 0.18 | 0.33 | 0.33 | 91 | 1009.8 |
| 20260506134521 | 15 | 110 | 0.0 | 1.6 | 0.15 | 0.28 | 0.28 | 91 | 1010.1 |
| 20260506133018 | 15 | 146 | 0.0 | 3.2 | 0.18 | 0.25 | 0.25 | 91 | 1010.3 |
| 20260506131516 | 15 | 239 | 0.0 | 0.0 | 0.20 | 0.20 | 0.20 | 91 | 1010.5 |